Tracking 28790 objects as of 19-Apr-2024
HD Live streaming from Space Station
objects crossing your sky now

THORAD DELTA 1 DEB

Track THORAD DELTA 1 DEB now!
10-day predictions


NORAD ID: 14475
Int'l Code: 1974-089ER
Perigee: 1,332.8 km
Apogee: 1,533.8 km
Inclination: 101.0 °
Period: 114.4 minutes
Semi major axis: 7804 km
RCS: 0.0155 m2 (small)
Launch date: November 15, 1974
Source: United States (US)
Launch site: AIR FORCE WESTERN TEST RANGE (AFWTR)

Note: This is SATELLITE DEBRIS
Your satellite tracking list
Your tracking list is empty




NASA's NSSDC Master Catalog

Two Line Element Set (TLE):
1 14475U 74089ER  24108.99355796  .00000740  00000-0  44081-2 0  9997
2 14475 101.0242 296.2709 0128767 335.4971 178.9630 12.59216455882508
Source of the keplerian elements: AFSPC